Home   Weather   Xiamen   Past weeks

Flag for China Past Weather in Xiamen, Fujian, China — Yesterday and Last 2 Weeks

Now
81 °F

Sunny.


Feels Like: 86 °F
Forecast: 76 / 87 °F
Wind: 1 mph from North

Location: Xiamen Airport

Current Time: Oct 1, 2016 at 7:57:08 AM

Latest Report: Oct 1, 2016 at 7:00 AM


Visibility: 10 mi

Pressure: 29.86 "Hg

Humidity: 84%

Dew Point: 75 °F

Location of XiamenLocation

Past Weather in Xiamen — Graph

°F

Xiamen Temperature Yesterday

Maximum temperature yesterday: 90 °F (at 1:00 PM)
Minimum temperature yesterday: 79 °F (at 12:00 AM)
Average temperature yesterday: 83 °F

High & Low Weather Summary for the Past Weeks

 TemperatureHumidityPressure
High95 °F (Sep 27, 12:00 PM)100% (Sep 16, 6:00 AM)30.04 "Hg (Sep 16, 6:00 AM)
Low72 °F (Sep 26, 5:00 AM)38% (Sep 25, 2:00 PM)29.06 "Hg (Sep 28, 2:00 AM)
Average82 °F70%29.75 "Hg
* Reported Sep 16 6:00 AM — Oct 1 6:00 AM, Xiamen, Weather by CustomWeather, © 2016

Note: Actual official high and low records may vary slightly from our data, if they occured in-between our weather recording intervals... More about our weather records

Advertising

Xiamen Weather History for the Previous 24 Hours

Scroll right to see more
 ConditionsComfort  
Time TempWeatherWind HumidityBarometerVisibility
6:00 AM
Sat, Oct 1
79 °FSunny.1 mph89%29.83 "Hg10 mi
5:00 AM79 °FPassing clouds.1 mph84%29.83 "HgN/A
4:00 AM79 °FPassing clouds.1 mph89%29.83 "HgN/A
3:00 AM79 °FLight rain. Passing clouds.3 mph89%29.83 "HgN/A
2:00 AM81 °FPassing clouds.1 mph79%29.83 "Hg6 mi
1:00 AM79 °FPassing clouds.1 mph89%29.86 "Hg5 mi
12:00 AM79 °FPassing clouds.3 mph89%29.86 "Hg5 mi
11:00 PM
Fri, Sep 30
81 °FPassing clouds.3 mph84%29.86 "HgN/A
10:00 PM82 °FPassing clouds.1 mph79%29.86 "HgN/A
9:00 PM82 °FClear.1 mph79%29.83 "Hg10 mi
8:00 PM82 °FClear.3 mph79%29.80 "Hg10 mi
7:00 PM82 °FPassing clouds.3 mph74%29.80 "HgN/A
6:00 PM82 °FPassing clouds.3 mph74%29.77 "HgN/A
5:00 PM84 °FPassing clouds.1 mph70%29.77 "HgN/A
4:00 PM82 °FPassing clouds.3 mph74%29.77 "HgN/A
3:00 PM82 °FScattered clouds.10 mph79%29.74 "HgN/A
2:00 PM88 °FScattered clouds.13 mph62%29.77 "HgN/A
1:00 PM90 °FPartly sunny.10 mph63%29.77 "HgN/A
12:00 PM88 °FPartly sunny.15 mph70%29.77 "HgN/A
11:00 AM86 °FPartly sunny.13 mph75%29.80 "HgN/A
10:00 AM84 °FBroken clouds.8 mph74%29.83 "HgN/A
9:00 AM84 °FScattered clouds.8 mph79%29.80 "HgN/A
8:00 AM82 °FScattered clouds.6 mph84%29.77 "HgN/A
7:00 AM81 °FPartly sunny.6 mph89%29.77 "Hg5 mi
Weather by CustomWeather, © 2016

See weather overviewHow to use our weather pages